STARLINK-36615, 67621

Orbit data source: Space-Track

STARLINK-36615, 67621 is a payload satellite owned by SpaceX/Seattle (US) in LEO that was launched on Fri, 30 Jan 2026 UTC via an FALCON 9 launch vehicle from the Air Force Eastern Test Range (AFETR). Payload-class satellites include a variety of spacecraft equipped with specific instruments for various scientific and technological missions. These include communications satellites like Starlink; space stations such as the ISS; scientific satellites like the Hubble; Earth observation satellites from companies like Planet Labs, Umbra, and HawkEye 360; GPS; miniature CubeSats for education and research; and military/defense satellites.

Loading next visibility...
Identifier
67621, 2026-020E
Orbit
LEO
Country
Flag of USUS
Related business
Manufacturer
SpaceX/Seattle
Mission
Operational spacecraft
Bus & Motor
STARLINK V2MO, Unknown motor
Mass
575 kg wet, ~530 kg dry
Launch date (UTC)
2026-01-30 (2 months ago)
Launch vehicle
FALCON 9
Launch site
Air Force Eastern Test Range (AFETR)
Object type
Payload
Rocket body
Debris
Shape & HBR
Unknown shape, 17.7 m
Radar Cross Section
RCS unknown

Expand to show TLE details & history
Last TLE update: 6 hours ago

TLE from 6 hours ago
0 STARLINK-36615
1 67621U 26020E   26104.80861126  .00007962  00000-0  29843-3 0  9990
2 67621  42.9985 296.1215 0001207 272.0057  88.0656 15.27589595 11630
Epoch: 2026-04-14T19:24Z
TLE epoch observation values (Epoch: 2026-04-14T19:24:24.012Z)
Latitude
-0.00006°
Longitude
162.04184°
Altitude
482.768 km
Speed
7.626 km/s
True Right ascension
19h 44m 29s
True Declination
0° 00' 00"
Sunlit
Object was in daylight at epoch
Visualization orbit readout
Latitude
Unknown
Longitude
Unknown
Altitude
Unknown
Speed
Unknown
Apparent Right ascension
Unknown
Apparent Declination
Unknown
Sunlit
N/A
Visualization observer readout
Local Sidereal Time
08:13:31
Azimuth
Unknown
Elevation
Unknown
Doppler factor
Unknown
Orbital elements
Apogee altitude
485.794 km
Perigee altitude
484.137 km
Semi-major axis
6,863.103 km
Eccentricity
0.00012
Inclination
42.9985°
RAAN
296.1215°
Arg. of periapsis
272.0057°
True anomaly
88.07942°
Mean anomaly
88.0656°
Eccentric anomaly
88.07251°
Mean motion
3.81735 °/min
Orbital period
94.31 mins
BSTAR
0.00029843
Loading maneuver chart data...
Computing Atmospheric mass density...
Loading historical data...
Loading historical data...
Loading historical data...
Loading historical data...
Loading historical data...
Loading historical data...
Loading historical data...

Documentation

Showing up to 5 results
|